Flag for U.S.A. Weather past 2 weeks in Sandpoint, Idaho, U.S.A.

Now
61 °F

Passing clouds.


Feels Like: 61 °F
Forecast: 50 / 66 °F
Wind: 7 mph from Southwest

Location: Sandpoint Airport

Current Time: Aug 31, 2014 at 2:02:08 AM

Latest Report: Aug 31, 2014 at 1:15 AM


Visibility: 10 mi

Pressure: 29.84 "Hg

Humidity: 68%

Dew point: 50 °F

Location of SandpointLocation

Historic Weather in Sandpoint — Graph

°F

Sandpoint temperature yesterday

Maximum temperature yesterday: 72 °F (at 1:15 PM)
Minimum temperature yesterday: 46 °F (at 4:15 AM)
Average temperature yesterday: 62 °F

Past Weeks' High & Low Weather Summary

 TemperatureHumidityPressure
High86 °F (Aug 18, 4:35 PM)100% (Aug 16, 12:15 AM)30.16 "Hg (Aug 16, 12:15 AM)
Low45 °F (Aug 26, 4:55 AM)26% (Aug 29, 3:15 PM)29.69 "Hg (Aug 19, 4:15 PM)
Average63 °F71%29.97 "Hg
* Reported Aug 16 12:15 AM — Aug 31 12:55 AM, Sandpoint, Weather by CustomWeather, © 2014

Note: Actual official high and low records may vary slightly from our data, if they occured in-between our weather recording intervals... More about our weather records

Advertising

Sandpoint weather history for previous 24 hours

 ConditionsComfort  
Time TempWeatherWind HumidityBarometerVisibility
12:55 AM
Aug 31
61 °FPassing clouds.7 mph63%29.83 "Hg10 mi
12:15 AM61 °FPartly cloudy.9 mph68%29.82 "Hg10 mi
11:55 PM
Aug 30
61 °FPassing clouds.5 mph59%29.82 "Hg10 mi
11:15 PM61 °FClear.5 mph52%29.81 "Hg10 mi
10:55 PM61 °FClear.7 mph52%29.81 "Hg10 mi
10:15 PM61 °FClear.6 mph52%29.80 "Hg10 mi
9:55 PM61 °FPassing clouds.5 mph52%29.81 "Hg10 mi
9:35 PM61 °FPassing clouds.3 mph52%29.81 "Hg10 mi
9:15 PM61 °FPassing clouds.6 mph55%29.81 "Hg10 mi
8:55 PM61 °FClear.3 mph55%29.81 "Hg10 mi
8:35 PM63 °FClear.3 mph49%29.80 "Hg10 mi
8:15 PM64 °FSunny.7 mph46%29.80 "Hg10 mi
7:55 PM64 °FSunny.5 mph46%29.79 "Hg10 mi
7:35 PM66 °FScattered clouds.No wind40%29.79 "Hg10 mi
7:15 PM68 °FScattered clouds.5 mph38%29.78 "Hg10 mi
6:55 PM68 °FScattered clouds.6 mph38%29.78 "Hg10 mi
6:35 PM68 °FSunny.6 mph40%29.78 "Hg10 mi
6:15 PM68 °FScattered clouds.5 mph40%29.78 "Hg10 mi
5:55 PM68 °FScattered clouds.6 mph40%29.78 "Hg10 mi
5:35 PM70 °FScattered clouds.6 mph35%29.79 "Hg10 mi
5:15 PM72 °FScattered clouds.7 mph33%29.79 "Hg10 mi
4:55 PM70 °FPartly sunny.10 mph35%29.80 "Hg10 mi
4:35 PM70 °FPartly sunny.9 mph38%29.80 "Hg10 mi
4:15 PM72 °FBroken clouds.6 mph36%29.80 "Hg10 mi
3:55 PM72 °FBroken clouds.14 mph33%29.81 "Hg10 mi
3:35 PM70 °FBroken clouds.6 mph38%29.81 "Hg10 mi
3:15 PM70 °FBroken clouds.3 mph38%29.81 "Hg10 mi
2:55 PM70 °FMore clouds than sun.3 mph38%29.82 "Hg10 mi
2:35 PM70 °FMore clouds than sun.6 mph35%29.83 "Hg10 mi
2:15 PM68 °FMore clouds than sun.5 mph35%29.83 "Hg10 mi
1:55 PM70 °FMostly cloudy.7 mph33%29.83 "Hg10 mi
1:35 PM70 °FMore clouds than sun.9 mph35%29.84 "Hg10 mi
1:15 PM72 °FBroken clouds.8 mph36%29.84 "Hg10 mi
12:55 PM68 °FScattered clouds.7 mph40%29.84 "Hg10 mi
12:35 PM70 °FMild.12 mph40%29.84 "Hg10 mi
11:55 AM66 °FBroken clouds.7 mph46%29.86 "Hg10 mi
11:15 AM68 °FScattered clouds.6 mph43%29.87 "Hg10 mi
10:15 AM64 °FSunny.5 mph49%29.87 "Hg10 mi
9:55 AM63 °FSunny.6 mph56%29.87 "Hg10 mi
9:35 AM61 °FScattered clouds.7 mph59%29.87 "Hg10 mi
9:15 AM61 °FBroken clouds.6 mph59%29.87 "Hg10 mi
8:55 AM61 °FScattered clouds.6 mph55%29.87 "Hg10 mi
8:35 AM61 °FBroken clouds.7 mph55%29.87 "Hg10 mi
8:15 AM59 °FScattered clouds.8 mph59%29.87 "Hg10 mi
7:55 AM55 °FScattered clouds.5 mph67%29.86 "Hg10 mi
7:35 AM55 °FSunny.5 mph67%29.86 "Hg10 mi
7:15 AM55 °FSunny.6 mph67%29.86 "Hg10 mi
6:55 AM55 °FClear.6 mph63%29.86 "Hg10 mi
6:15 AM55 °FPassing clouds.6 mph63%29.85 "Hg10 mi
5:55 AM55 °FPassing clouds.6 mph63%29.85 "Hg10 mi
5:15 AM55 °FClear.6 mph63%29.84 "Hg10 mi
4:55 AM55 °FClear.5 mph63%29.83 "Hg10 mi
4:35 AM50 °FClear.5 mph82%29.83 "Hg10 mi
4:15 AM46 °FClear.No wind93%29.82 "Hg10 mi
3:55 AM50 °FClear.No wind82%29.82 "Hg10 mi
3:35 AM52 °FClear.No wind77%29.81 "Hg10 mi
3:15 AM52 °FClear.No wind77%29.81 "Hg10 mi
2:55 AM54 °FClear.3 mph72%29.81 "Hg10 mi
2:35 AM54 °FClear.No wind72%29.81 "Hg10 mi
2:15 AM61 °FClear.3 mph52%29.81 "Hg10 mi
Weather by CustomWeather, © 2014

See weather overviewHow to use our weather pages